Location: Stamford Observatory
(41.1241°N, 73.5498°W)
Time: 20:41:41
(UTC-04:00)

Daily predictions for brighter satellites

Satellite Brightness Start Highest point End
(mag) Time Altitude Azimuth Time Altitude Azimuth Time Altitude Azimuth
Cosmos 1934 Rocket 4.0 19:30:49 10° S 19:36:49 59° E 19:42:46 10° NNE
Okean 3 Rocket 4.2 19:38:34 10° N 19:42:36 34° ENE 19:46:37 10° SE
Cosmos 1867 4.4 19:38:50 10° SSE 19:43:23 28° ESE 19:47:57 10° NE
FengYun 1-2 T 4.4 19:38:01 10° SSE 19:43:27 59° ENE 19:49:00 10° N
H-2A R/B 3.2 19:44:02 10° SE 19:47:43 41° ENE 19:51:26 10° N
Spot 2 Rocket 3.8 19:43:29 10° SE 19:48:20 46° ENE 19:53:13 10° N
Tiangong 1 2.1 19:48:45 10° W 19:51:29 34° SSW 19:54:11 10° SE
Cosmos 1707 4.3 19:49:10 10° NNW 19:52:50 40° W 19:56:28 10° SSW
Abrixas 2.8 19:50:37 10° NW 19:53:23 46° NNE 19:55:43 13° E
Meteor 1-24 Rocket 3.8 19:48:32 10° N 19:54:04 90° NE 19:59:47 10° S
Cosmos 2082 Rocket 3.0 19:49:10 10° N 19:54:16 32° ENE 19:59:16 10° ESE
Cosmos 1812 Rocket 3.8 19:50:56 10° SSW 19:55:21 77° W 19:59:45 10° N
Cosmos 1076 Rocket 4.3 19:52:40 10° NNE 19:56:27 30° ENE 20:00:11 10° SE
Cosmos 1758 3.9 19:53:01 10° SSE 19:56:37 33° E 20:00:13 10° NNE
Helios 1B rocket 3.6 19:53:33 10° NE 19:56:48 22° E 20:00:02 10° SSE
Lacrosse 5 2.1 19:51:58 10° SW 19:57:02 75° NW 20:02:08 10° NE
Cosmos 990 Rocket 4.3 19:51:59 10° SSW 19:57:14 73° WNW 20:02:29 10° NNE
FREGAT/IRIS 4.0 19:58:23 10° S 20:01:19 43° W 20:04:16 10° NNW
Cosmos 1821 Rocket 4.5 19:55:58 10° SSW 20:02:19 70° W 20:08:40 10° N
Cosmos 1953 2.8 20:00:48 10° SSE 20:04:35 38° E 20:08:22 10° NNE
Lacrosse 4 Rocket 3.7 20:01:11 10° WSW 20:04:36 25° NW 20:08:01 10° N
Envisat 4.1 20:02:47 12° ESE 20:06:33 26° ENE 20:10:42 10° N
GP-B 3.9 20:04:19 10° SE 20:08:12 30° E 20:12:05 10° NNE
USA 186 2.1 20:08:21 22° E 20:08:39 23° ENE 20:10:30 10° NNE
Helios 1A 3.6 20:06:44 10° SE 20:10:32 36° ENE 20:14:22 10° N
Cosmos 1939 Rocket 4.4 20:09:38 16° E 20:11:12 20° ENE 20:14:14 10° NNE
Cosmos 1766 Rocket 4.3 20:07:48 10° N 20:11:53 33° ENE 20:15:22 13° SE
CZ-3 Stage 3 4.3 19:17:17 10° WSW 20:13:13 56° S 20:20:19 16° ESE
Cosmos 1271 Rocket 3.9 20:10:40 10° SE 20:13:53 24° E 20:17:07 10° NE
Resurs 01 Rocket 1.6 20:09:52 10° SSE 20:14:16 87° ENE 20:18:43 10° NNW
Cosmos 1125 Rocket 3.5 20:09:29 10° S 20:14:32 54° ESE 20:19:37 10° NNE
Cosmos 1766 4.1 20:12:24 10° SSW 20:16:11 52° W 20:20:00 10° N
Cosmos 1048 Rocket 4.2 20:13:06 10° N 20:18:04 48° ENE 20:22:08 15° SE
Geosat 4.0 20:15:12 10° NE 20:20:10 57° ESE 20:25:05 10° SSW
Cosmos 1605 Rocket 4.0 20:14:07 10° S 20:20:22 89° ESE 20:26:47 10° N
Cosmos 2100 Rocket 4.4 20:16:43 10° SSE 20:22:30 40° E 20:28:22 10° NNE
Cosmos-2242 3.6 20:18:46 10° SSE 20:22:36 33° E 20:26:27 10° NNE
ERS-1 Rocket 4.3 20:23:22 19° E 20:24:49 21° ENE 20:28:34 10° NNE
Lacrosse 5 rocket 2.6 20:21:53 10° NNW 20:25:11 25° NNE 20:26:41 19° ENE
Fregat R/B Cluster 11 4.3 20:20:33 10° SSW 20:27:15 71° ESE 20:30:40 10° NE
SeaSat 1 3.3 20:23:50 10° S 20:28:37 50° WSW 20:33:25 10° NW
Cosmos 1674 2.9 20:26:25 10° N 20:30:05 46° E 20:31:54 25° SE
SAR-Lupe-4 3.4 20:31:34 18° SSE 20:34:09 73° ENE 20:37:44 10° N
YAOGAN 6 4.4 20:36:25 17° NE 20:36:25 17° NE 20:38:19 10° NNE
Cosmos 2344 4.4 20:35:13 10° SW 20:42:43 55° NW 20:51:21 10° NNE
CZ-2D R/B 3.9 20:39:14 10° S 20:43:02 56° W 20:46:53 10° NNW
Cosmos 1743 Rocket 4.2 20:39:20 10° N 20:43:24 34° ENE 20:43:50 33° E
Cosmos 1802 Rocket 4.2 20:37:53 10° SSE 20:43:39 45° E 20:49:27 10° NNE
Meteor 1-21 Rocket 4.3 20:38:25 10° N 20:44:17 89° E 20:50:11 10° S
BREEZE-M DEB (TANK) 3.9 20:42:31 10° NW 20:44:22 20° NNE 20:44:40 19° NNE
Meteor 1-29 2.8 20:42:32 10° NNE 20:46:00 65° ESE 20:48:19 19° S
CZ-3B DEB 3.8 20:37:28 10° WSW 20:47:13 43° NW 20:51:54 10° NE
Cosmos 1805 4.5 20:44:30 10° SSW 20:48:13 43° WNW 20:51:58 10° N
Cosmos 1818 3.9 20:45:33 10° NW 20:50:57 66° WSW 20:54:41 20° SSE
GPS 2-05 Rocket1 4.1 20:48:36 10° SW 20:51:23 28° S 20:51:23 28° S
COSMOS 2487 2.4 20:48:39 10° NNW 20:52:14 82° WSW 20:53:16 44° S
Cosmos 2251 Rocket 4.3 20:48:12 10° N 20:52:57 32° ENE 20:53:40 31° ENE
SAR-Lupe-1 4.2 20:51:15 28° S 20:53:02 74° WSW 20:56:37 10° NNW
Cosmos 2061 Rocket 4.0 20:50:47 10° S 20:57:05 65° E 21:03:26 10° NNE
Cosmos 1269 Rocket 4.1 20:51:53 10° NNW 20:57:10 74° WSW 21:00:49 20° S
Meteor 1-4 Rocket 4.1 20:56:26 10° SW 20:59:39 35° WNW 21:02:53 10° N
Timation 2 Rocket 3.8 20:55:57 10° NNW 21:02:18 88° ENE 21:05:26 31° SSE
Cosmos 1833 Rocket 2.7 20:57:02 10° NNW 21:02:42 83° WSW 21:05:39 29° SSE
Cosmos 1470 2.8 21:00:37 13° S 21:04:10 81° W 21:08:09 10° N
Cosmos 1408 Rocket 3.9 21:00:22 10° NNW 21:04:48 65° W 21:07:46 20° S
Cosmos 2278 Rocket 4.2 21:03:37 10° WSW 21:08:29 29° NW 21:13:23 10° N
Cosmos 1340 Rocket 2.7 21:07:46 10° N 21:11:50 85° WSW 21:12:09 74° S
CZ-4B DEB 3.6 21:12:04 45° W 21:12:04 45° W 21:15:03 10° NNW
Cosmos 372 Rocket 4.5 21:07:11 10° SSW 21:12:13 60° WNW 21:17:20 10° NNE
Cosmos 1733 3.5 21:10:59 24° SSW 21:13:12 65° W 21:17:05 10° N
Cosmos 1459 Rocket 3.9 21:07:46 10° S 21:14:03 87° W 21:20:16 10° N
USA 215 3.1 21:10:24 10° NE 21:16:56 74° SE 21:23:27 10° SW
Cosmos 1842 Rocket 4.2 21:18:20 42° NE 21:18:20 42° NE 21:21:27 10° NNE
ATLAS 5 CENTAUR R/B 1.9 21:14:56 10° SW 21:19:35 72° NW 21:24:43 10° NNE
Cosmos 2173 Rocket 4.0 21:13:39 10° S 21:19:49 80° W 21:26:07 10° N
ISS -1.6 21:17:17 10° SW 21:18:25 20° SW 21:18:25 20° SW
Cosmos 2151 4.2 21:20:45 10° N 21:23:14 31° NNE 21:23:14 31° NNE
Helios 1B rocket 4.4 21:28:31 10° N 21:32:06 29° WNW 21:35:40 10° SW
Meteor 1-11 4.1 21:31:05 10° N 21:36:36 73° ENE 21:36:36 73° ENE
Cosmos 494 Rocket 3.9 21:32:37 10° NNW 21:37:19 71° NNE 21:37:19 71° NNE
Cosmos 2082 Rocket 3.4 21:33:11 10° NW 21:38:22 37° WSW 21:41:10 23° SSW
Lacrosse 5 4.2 21:36:58 10° WNW 21:40:47 21° NNW 21:44:35 10° NNE
SPOT 5 3.5 21:45:02 52° NNE 21:45:02 52° NNE 21:49:20 10° N
Envisat 4.2 21:42:59 24° SSW 21:45:21 37° W 21:50:05 10° NNW
Cosmos 1939 Rocket 4.3 21:45:32 33° WSW 21:45:54 34° W 21:49:42 10° NNW
Meteor 1-16 Rocket 4.3 21:44:16 45° SSW 21:46:12 78° W 21:52:10 10° N
USA 267 3.8 21:48:09 41° NE 21:49:14 44° NNE 21:55:21 10° NW
MetOp-A 4.2 21:50:03 71° N 21:50:03 71° N 21:54:50 10° NNW
ARGOS 3.7 21:51:33 48° NNE 21:51:33 48° NNE 21:55:36 10° N
H-2A R/B 3.4 21:52:51 29° NNE 21:52:51 29° NNE 21:55:50 10° N
Cosmos 2016 Rocket 4.3 21:47:02 19° SSW 21:51:38 63° W 21:57:45 10° N
Cosmos 1725 Rocket 4.0 21:59:08 71° SW 21:59:45 79° W 22:05:59 10° N
Terra 4.1 22:04:46 15° NNE 22:04:46 15° NNE 22:05:45 10° N
ERS-1 Rocket 3.8 22:03:22 47° W 22:03:22 47° W 22:08:08 10° NNW
Lacrosse 5 rocket 3.6 22:00:54 10° WNW 22:02:24 21° WNW 22:02:24 21° WNW
Tsikada Rocket 4.3 22:11:27 10° NNW 22:17:28 63° W 22:17:28 63° W
Cosmos 2369 Rocket 4.4 22:34:54 16° NNE 22:34:54 16° NNE 22:35:54 10° NNE
USA 215 4.3 22:53:41 10° NE 22:59:39 39° NNW 23:05:36 10° W
